TimeHST,TemperatureF,Dew PointF,Humidity,Sea Level PressureIn,VisibilityMPH,Wind Direction,Wind SpeedMPH,Gust SpeedMPH,PrecipitationIn,Events,Conditions,WindDirDegrees,DateUTC
12:56 AM,75.9,66.0,71,29.96,10.0,ENE,3.5,-,N/A,,Scattered Clouds,60,2013-07-25 10:56:00
1:56 AM,75.9,66.0,71,29.94,10.0,SE,3.5,-,N/A,,Clear,140,2013-07-25 11:56:00
2:56 AM,73.9,64.9,73,29.94,10.0,Calm,Calm,-,N/A,,Clear,0,2013-07-25 12:56:00
3:56 AM,73.9,64.9,73,29.94,10.0,East,4.6,-,N/A,,Clear,90,2013-07-25 13:56:00
4:56 AM,73.0,64.9,76,29.94,10.0,East,3.5,-,N/A,,Clear,90,2013-07-25 14:56:00
5:56 AM,73.0,66.0,79,29.95,10.0,East,4.6,-,N/A,,Clear,100,2013-07-25 15:56:00
6:56 AM,73.9,66.0,76,29.96,10.0,ESE,3.5,-,N/A,,Clear,110,2013-07-25 16:56:00
7:56 AM,81.0,66.9,62,29.97,10.0,Calm,Calm,-,N/A,,Clear,0,2013-07-25 17:56:00
8:56 AM,82.0,68.0,62,29.98,10.0,NNW,8.1,-,N/A,,Clear,340,2013-07-25 18:56:00
9:56 AM,82.0,68.0,62,29.98,10.0,NW,5.8,-,N/A,,Clear,310,2013-07-25 19:56:00
10:56 AM,82.9,68.0,60,29.98,10.0,WNW,5.8,-,N/A,,Partly Cloudy,300,2013-07-25 20:56:00
11:56 AM,84.0,69.1,61,29.97,10.0,West,8.1,-,N/A,,Clear,260,2013-07-25 21:56:00
12:56 PM,84.9,68.0,57,29.96,10.0,SSW,10.4,-,N/A,,Partly Cloudy,210,2013-07-25 22:56:00
1:56 PM,84.0,69.1,61,29.95,10.0,South,9.2,-,N/A,,Clear,180,2013-07-25 23:56:00
2:56 PM,84.9,68.0,57,29.95,10.0,SSW,8.1,-,N/A,,Mostly Cloudy,210,2013-07-26 00:56:00
3:56 PM,84.0,66.9,56,29.94,10.0,Calm,Calm,-,N/A,,Overcast,0,2013-07-26 01:56:00
4:56 PM,84.0,66.9,56,29.94,10.0,NNW,8.1,-,N/A,,Mostly Cloudy,340,2013-07-26 02:56:00
5:56 PM,82.9,68.0,60,29.94,10.0,NW,9.2,-,N/A,,Mostly Cloudy,320,2013-07-26 03:56:00
6:56 PM,81.0,70.0,69,29.95,10.0,NNW,8.1,-,N/A,,Partly Cloudy,330,2013-07-26 04:56:00
7:56 PM,80.1,69.1,69,29.95,10.0,Calm,Calm,-,N/A,,Clear,0,2013-07-26 05:56:00
8:56 PM,78.1,69.1,74,29.96,10.0,SE,3.5,-,N/A,,Scattered Clouds,130,2013-07-26 06:56:00
9:56 PM,75.9,64.9,69,29.97,10.0,SE,4.6,-,N/A,,Partly Cloudy,140,2013-07-26 07:56:00
10:56 PM,75.9,66.9,74,29.98,10.0,NNE,5.8,-,N/A,,Clear,20,2013-07-26 08:56:00
11:56 PM,75.9,68.0,76,29.97,10.0,NNE,6.9,-,N/A,,Clear,20,2013-07-26 09:56:00